Location: Newark
(29.9790°N, 31.1340°E)
Time: 09:23:17
(UTC+00:00)

Vanguard 3 - Pass Details

Date: 26 January 2021
Orbit: 508 x 3262 km, 33.4° (Epoch: 07 March)

Event Time Altitude Azimuth Distance (km) Brightness Sun altitude
Exits shadow 03:59:58 13° 285° (WNW) 3,093 9.4 -10.9°
Maximum altitude 04:08:02 82° 13° (NNE) 1,891 9.0 -9.2°
Drops below altitude 10° 04:23:48 10° 102° (ESE) 5,604 13.2 -5.9°
Sets 04:28:55 0° 103° (ESE) 6,906 14.6 -4.9°
